weather.gov     
National Weather Service

Terminal Aerodrome Forecast
NWS Homepage
This page is being discontinued on March 12, 2014.
The same data is available at this site. Please update your bookmarks.
Thank you, and we apologize for the inconvenience.
Please send an email to SR-SRH.Webmaster@noaa.gov with any concerns.


Current Version
Previous Version:    01  02  03  04  05  06  07  08  09  10  11  12  13  14  15  16  17  18  19  20  21  22  23  24  25  26  27  28  
[Printable]
563
FTUS46 KHNX 190535
TAFVIS
TAF
KVIS 190535Z 1906/2006 08003KT P6SM SCT200
     FM191100 VRB03KT 3SM BR SCT020 BKN250
      TEMPO 1913/1917 2SM BR
     FM192000 13005KT 4SM HZ BR OVC060 PROB30 1921/2003 4SM -RA
      OVC040=




563
FTUS46 KHNX 190535
TAFVIS
TAF
KVIS 190535Z 1906/2006 08003KT P6SM SCT200
     FM191100 VRB03KT 3SM BR SCT020 BKN250
      TEMPO 1913/1917 2SM BR
     FM192000 13005KT 4SM HZ BR OVC060 PROB30 1921/2003 4SM -RA
      OVC040=


U.S. Dept. of Commerce
NOAA National Weather Service
1325 East West Highway
Silver Spring, MD 20910
E-mail: w-nws.webmaster@noaa.gov
Page last modified: May 16, 2007
NATIONAL WEATHER SERVICE: for Safety, for Work, for Fun - FOR LIFE